Orbital Elements at Epoch 2459200.5 (2020-Dec-17.0) TDB
Reference: JPL 23 (heliocentric ecliptic J2000)
Element | Value | Uncertainty (1-sigma) | Units |
e | .03141990747236859 | 5.2356e-08 | |
a | 2.622612202982355 | 1.5096e-08 | au |
q | 2.540209970228745 | 1.4052e-07 | au |
i | 11.37060554253012 | 6.7229e-06 | deg |
node | 34.18641042736935 | 2.0857e-05 | deg |
peri | 121.2467188942309 | 9.5187e-05 | deg |
M | 244.9102128799199 | 9.2265e-05 | deg |
tp | 2459696.445357615089 (2022-Apr-26.94535762) | 0.00039795 | TDB |
period | 1551.313398078929 4.25 | 1.3394e-05 3.667e-08 | d yr |
n | .2320614264311818 | 2.0036e-09 | deg/d |
Q | 2.705014435735966 | 1.557e-08 | au |
|
| | Orbit Determination Parameters
Additional Information
|